W1MDM-13 Weather Reports


time (UTC)temp
F
wind
direction
speed
knots
gust
knots
rain 1hr
in
rain 24hr
in
rain mn
in
humidity
%
barometer
mb
20260506213004 81 357 2.6 7.8 0.00 0.00 0.00 74 1010.2
20260506212504 81 355 3.5 9.6 0.00 0.00 0.00 74 1010.2
20260506212003 81 353 3.5 10.4 0.00 0.00 0.00 74 1010.1
20260506211503 81 355 2.6 10.4 0.00 0.00 0.00 75 1010.1
20260506211003 82 340 2.6 7.8 0.00 0.00 0.00 74 1010.1
20260506210503 82 344 2.6 8.7 0.00 0.00 0.00 72 1010.2
20260506210003 84 4 3.5 12.2 0.00 0.00 0.00 70 1010.2
20260506205714 85 24 3.5 12.2 0.00 0.00 0.00 69 1010.3
20260506205004 86 69 1.7 3.5 0.00 0.00 0.00 71 1009.9
20260506204503 86 73 1.7 4.3 0.00 0.00 0.00 74 1010.0
20260506204004 85 74 2.6 6.1 0.00 0.00 0.00 73 1010.0
20260506203503 84 75 2.6 6.1 0.00 0.00 0.00 75 1010.1
20260506203214 84 76 2.6 6.1 0.00 0.00 0.00 74 1010.1
20260506202717 84 79 2.6 6.1 0.00 0.00 0.00 75 1010.2
20260506202003 84 82 2.6 6.1 0.00 0.00 0.00 75 1010.3
20260506201503 85 85 2.6 6.1 0.00 0.00 0.00 74 1010.4
20260506201004 86 88 1.7 5.2 0.00 0.00 0.00 71 1010.4
20260506200004 86 100 1.7 5.2 0.00 0.00 0.00 72 1010.4
20260506195714 87 108 1.7 5.2 0.00 0.00 0.00 72 1010.4
20260506195003 86 124 1.7 5.2 0.00 0.00 0.00 73 1010.3
20260506194715 86 120 1.7 7.0 0.00 0.00 0.00 72 1010.3
20260506194003 86 98 1.7 7.0 0.00 0.00 0.00 75 1010.3
20260506193503 85 91 1.7 3.5 0.00 0.00 0.00 76 1010.2
20260506192504 84 90 1.7 3.5 0.00 0.00 0.00 75 1010.4
20260506192004 84 91 0.9 3.5 0.00 0.00 0.00 75 1010.4
20260506191503 84 92 0.9 3.5 0.00 0.00 0.00 76 1010.5
20260506191003 84 93 1.7 6.1 0.00 0.00 0.00 75 1010.6
20260506190503 84 94 0.9 6.1 0.00 0.00 0.00 75 1010.6
20260506190003 84 93 1.7 6.1 0.00 0.00 0.00 76 1010.6
20260506185003 84 104 0.9 5.2 0.00 0.00 0.00 76 1010.8
20260506184504 84 112 0.9 3.5 0.00 0.00 0.00 76 1010.8
20260506184004 84 110 1.7 5.2 0.00 0.00 0.00 75 1010.9
20260506183004 84 118 1.7 6.1 0.00 0.00 0.00 76 1011.0
20260506182713 84 123 1.7 6.1 0.00 0.00 0.00 76 1011.0
20260506182003 83 120 1.7 6.1 0.00 0.00 0.00 79 1011.1
20260506181503 82 98 1.7 6.1 0.00 0.00 0.00 81 1011.0
20260506175503 81 78 1.7 6.1 0.00 0.00 0.00 83 1011.3
20260506175004 80 73 1.7 4.3 0.00 0.00 0.00 85 1011.3
20260506174503 80 72 1.7 4.3 0.00 0.00 0.00 85 1011.4
20260506174003 79 74 1.7 4.3 0.00 0.00 0.00 85 1011.6
20260506173503 79 75 1.7 4.3 0.00 0.00 0.00 85 1011.6
20260506173003 79 77 1.7 4.3 0.00 0.00 0.00 86 1011.6
20260506172217 79 77 1.7 4.3 0.00 0.00 0.00 86 1011.7
20260506171504 78 80 1.7 4.3 0.00 0.00 0.00 87 1011.7
20260506171003 78 77 1.7 4.3 0.00 0.00 0.00 87 1011.7
20260506170503 78 73 1.7 6.1 0.00 0.00 0.00 87 1011.8
20260506170003 78 72 2.6 6.1 0.00 0.00 0.00 87 1011.8
20260506165503 78 76 2.6 6.1 0.00 0.00 0.00 87 1011.8
20260506165003 78 82 1.7 6.1 0.00 0.00 0.00 86 1011.7
20260506164503 78 85 1.7 7.0 0.00 0.00 0.00 87 1011.8
20260506164004 78 81 2.6 7.0 0.00 0.00 0.00 87 1011.7
20260506163504 78 75 1.7 4.3 0.00 0.00 0.00 87 1011.7
20260506163216 78 76 1.7 4.3 0.00 0.00 0.00 87 1011.7
20260506162714 78 77 1.7 4.3 0.00 0.00 0.00 88 1011.7
20260506162003 78 83 1.7 4.3 0.00 0.00 0.00 89 1011.7
20260506161503 77 90 0.9 3.5 0.00 0.00 0.00 91 1011.7
20260506161003 77 92 0.9 3.5 0.00 0.00 0.00 91 1011.7
20260506160503 77 96 0.9 3.5 0.00 0.00 0.00 91 1011.7
20260506160003 77 107 0.9 3.5 0.00 0.00 0.00 92 1011.7
20260506155504 76 115 0.9 2.6 0.00 0.00 0.00 92 1011.6
20260506155004 76 118 0.9 3.5 0.00 0.00 0.00 92 1011.5
20260506154503 76 120 0.9 3.5 0.00 0.00 0.00 93 1011.5
20260506154003 76 120 0.9 3.5 0.00 0.00 0.00 92 1011.3
20260506153503 76 120 0.9 1.7 0.00 0.00 0.00 93 1011.1
20260506153003 76 120 0.9 2.6 0.00 0.00 0.00 94 1011.2
20260506152503 76 121 0.9 2.6 0.00 0.00 0.00 93 1011.0
20260506152003 75 122 0.9 2.6 0.00 0.00 0.00 94 1011.1
20260506151716 75 123 0.9 2.6 0.00 0.00 0.00 93 1011.0
20260506151004 75 124 0.9 2.6 0.00 0.00 0.00 94 1010.9
20260506150504 75 125 0.9 2.6 0.00 0.00 0.00 94 1010.7
20260506150004 75 125 0.9 1.7 0.00 0.00 0.00 94 1010.7
20260506145713 75 125 0.9 1.7 0.00 0.00 0.00 94 1010.8
20260506145003 75 126 0.9 2.6 0.00 0.00 0.00 94 1010.8
20260506144503 75 126 0.9 2.6 0.00 0.00 0.00 94 1010.8
20260506144003 75 126 0.9 2.6 0.00 0.00 0.00 94 1010.8
20260506143503 75 127 0.9 2.6 0.00 0.00 0.00 94 1010.8
20260506143004 75 128 0.9 2.6 0.00 0.00 0.00 94 1010.6
20260506142504 75 0 0.0 1.7 0.00 0.00 0.00 94 1010.5
20260506142003 75 0 0.0 2.6 0.00 0.00 0.00 94 1010.5
20260506141503 75 125 0.9 3.5 0.00 0.00 0.00 94 1010.2
20260506141003 75 126 0.9 3.5 0.00 0.00 0.00 94 1010.2
20260506140003 74 127 0.9 3.5 0.00 0.00 0.00 94 1010.1
20260506135503 74 129 0.9 3.5 0.00 0.00 0.00 94 1009.8
20260506135216 74 130 0.9 2.6 0.00 0.00 0.00 94 1009.7
20260506134504 74 120 0.9 3.5 0.00 0.00 0.00 95 1009.5
20260506134004 74 106 1.7 6.1 0.00 0.00 0.00 95 1009.6
20260506133503 74 111 2.6 6.1 0.00 0.00 0.00 95 1009.5
20260506133003 74 122 2.6 5.2 0.00 0.00 0.00 95 1009.4
20260506132716 74 125 1.7 4.3 0.00 0.00 0.00 95 1009.4
20260506132214 74 128 1.7 4.3 0.00 0.00 0.00 95 1009.3
20260506131503 74 133 0.9 3.5 0.00 0.00 0.00 95 1009.3
20260506131215 74 133 1.7 3.5 0.00 0.00 0.00 95 1009.3
20260506130504 74 135 0.9 2.6 0.00 0.00 0.00 95 1009.1
20260506130004 74 135 0.9 2.6 0.00 0.00 0.00 95 1009.2
20260506125714 74 136 0.9 2.6 0.00 0.00 0.00 95 1009.1
20260506125003 74 136 0.9 3.5 0.00 0.00 0.00 95 1009.1
20260506124503 74 137 0.9 3.5 0.00 0.00 0.00 95 1009.2
20260506124003 74 137 0.9 3.5 0.00 0.00 0.00 95 1009.3
20260506123503 74 137 0.9 1.7 0.00 0.00 0.00 94 1009.2
20260506123003 74 137 0.9 2.6 0.00 0.00 0.00 94 1009.3
20260506122504 74 0 0.0 2.6 0.00 0.00 0.00 94 1009.3
20260506122215 74 0 0.0 2.6 0.00 0.00 0.00 94 1009.3
20260506121503 74 137 0.9 2.6 0.00 0.00 0.00 94 1009.3
20260506121003 74 137 0.9 2.6 0.00 0.00 0.00 94 1009.2
20260506120503 74 137 0.9 2.6 0.00 0.00 0.00 94 1009.1
20260506120003 74 138 0.9 3.5 0.00 0.00 0.00 94 1009.2
20260506115715 74 137 0.9 3.5 0.00 0.00 0.00 94 1009.1
20260506115212 74 137 0.9 2.6 0.00 0.00 0.00 94 1009.1
20260506114503 74 137 0.9 2.6 0.00 0.00 0.00 94 1009.0
20260506114003 74 137 1.7 2.6 0.00 0.00 0.00 94 1009.0
20260506113504 74 137 0.9 2.6 0.00 0.00 0.00 94 1009.0
20260506113004 74 0 0.0 1.7 0.00 0.00 0.00 94 1009.0
20260506112504 74 0 0.0 1.7 0.00 0.00 0.00 94 1009.0
20260506112003 74 137 0.9 2.6 0.00 0.00 0.00 94 1008.9
20260506111505 74 137 0.9 2.6 0.00 0.00 0.00 93 1009.0
20260506111003 74 137 0.9 3.5 0.00 0.00 0.00 93 1009.0
20260506110503 74 137 1.7 3.5 0.00 0.00 0.00 93 1009.0
20260506110003 74 143 1.7 4.3 0.00 0.00 0.00 93 1009.0
20260506105004 74 172 0.9 4.3 0.00 0.00 0.00 93 1008.9
20260506104504 75 172 0.9 4.3 0.00 0.00 0.00 93 1008.8
20260506104003 75 172 0.9 2.6 0.00 0.00 0.00 93 1008.9
20260506103503 75 172 0.9 4.3 0.00 0.00 0.00 93 1008.9
20260506103215 75 172 0.9 4.3 0.00 0.00 0.00 93 1008.9
20260506102503 75 168 1.7 6.1 0.00 0.00 0.00 93 1008.8
20260506102003 75 165 1.7 7.0 0.00 0.00 0.00 93 1008.9
20260506101503 75 164 1.7 7.0 0.00 0.00 0.00 93 1009.0
20260506101217 75 166 1.7 7.0 0.00 0.00 0.00 93 1008.9
20260506100504 75 182 1.7 4.3 0.00 0.00 0.00 93 1008.8
20260506095003 75 168 2.6 7.0 0.00 0.00 0.00 93 1008.6
20260506094503 75 181 1.7 7.0 0.00 0.00 0.00 93 1008.7
20260506094003 75 198 1.7 6.1 0.00 0.00 0.00 92 1008.7
20260506093503 75 183 1.7 6.1 0.00 0.00 0.00 92 1008.7
20260506093004 75 175 2.6 7.8 0.00 0.00 0.00 92 1008.7
20260506092504 75 169 2.6 8.7 0.00 0.00 0.00 92 1008.4
20260506092003 75 170 2.6 8.7 0.00 0.00 0.00 92 1008.5
20260506091503 75 184 2.6 6.1 0.00 0.00 0.00 92 1008.5
20260506091004 75 176 1.7 7.0 0.00 0.00 0.00 92 1008.5
20260506090503 75 173 2.6 7.0 0.00 0.00 0.00 92 1008.5
20260506090003 75 181 1.7 7.0 0.00 0.00 0.00 92 1008.7
20260506085503 75 183 1.7 7.0 0.00 0.00 0.00 92 1008.7
20260506084504 75 185 2.6 7.0 0.00 0.00 0.00 92 1008.7
20260506084003 75 174 3.5 7.8 0.00 0.00 0.00 92 1008.6
20260506083503 75 169 2.6 7.8 0.00 0.00 0.00 92 1008.7
20260506083003 75 179 2.6 7.8 0.00 0.00 0.00 92 1008.6
20260506082503 75 189 2.6 8.7 0.00 0.00 0.00 92 1008.7
20260506082003 75 205 2.6 8.7 0.00 0.00 0.00 92 1008.7
20260506081503 75 190 1.7 7.0 0.00 0.00 0.00 92 1008.6
20260506081004 75 171 1.7 7.0 0.00 0.00 0.00 92 1008.7
20260506080503 75 176 2.6 11.3 0.00 0.00 0.00 92 1008.6
20260506073503 75 171 3.5 8.7 0.00 0.00 0.00 92 1009.0
20260506073003 75 172 2.6 7.0 0.00 0.00 0.00 92 1009.0
20260506072504 75 170 2.6 7.8 0.00 0.00 0.00 92 1009.1
20260506072213 75 168 2.6 7.8 0.00 0.00 0.00 92 1009.1
20260506071503 75 169 2.6 8.7 0.00 0.00 0.00 92 1009.1
20260506071214 75 165 2.6 8.7 0.00 0.00 0.00 92 1009.1
20260506062503 75 192 1.7 7.0 0.00 0.00 0.00 93 1009.4
20260506062003 75 177 1.7 7.0 0.00 0.00 0.00 93 1009.4
20260506061716 75 172 1.7 7.0 0.00 0.00 0.00 93 1009.4
20260506061003 75 151 2.6 6.1 0.00 0.00 0.00 92 1009.3
20260506060215 75 177 1.7 5.2 0.00 0.00 0.00 92 1009.4
20260506051003 76 146 2.6 7.0 0.00 0.00 0.00 92 1009.4
20260506050503 76 144 2.6 6.1 0.00 0.00 0.00 92 1009.2
20260506045003 76 157 2.6 6.1 0.00 0.00 0.00 92 1009.1
20260506044503 76 154 2.6 7.0 0.00 0.00 0.00 92 1009.0
20260506044004 76 129 2.6 7.0 0.00 0.00 0.00 92 1009.2
20260506043503 76 121 2.6 7.8 0.00 0.00 0.00 92 1009.2
20260506042504 76 103 1.7 7.0 0.00 0.00 0.00 91 1009.1
20260506042003 76 120 2.6 5.2 0.00 0.00 0.00 91 1009.2
20260506041503 76 150 2.6 7.0 0.00 0.00 0.00 91 1009.2
20260506041216 76 156 2.6 7.0 0.00 0.00 0.00 91 1009.2
20260506040503 76 154 1.7 5.2 0.00 0.00 0.00 91 1008.9
20260506040217 76 154 1.7 5.2 0.00 0.00 0.00 91 1008.9
20260506035504 76 146 2.6 6.1 0.00 0.00 0.00 91 1008.9
20260506035004 76 138 2.6 7.0 0.00 0.00 0.00 91 1008.8
20260506034003 76 138 2.6 9.6 0.00 0.00 0.00 90 1008.8
20260506033503 77 145 3.5 9.6 0.00 0.00 0.00 90 1008.7
20260506032503 77 142 2.6 8.7 0.00 0.00 0.00 90 1008.4
20260506032004 77 144 2.6 8.7 0.00 0.00 0.00 89 1008.3
20260506031504 77 158 2.6 9.6 0.00 0.00 0.00 89 1008.3
20260506031003 77 161 3.5 9.6 0.00 0.00 0.00 89 1008.3
20260506030503 77 155 2.6 6.1 0.00 0.00 0.00 89 1008.1
20260506030003 78 145 2.6 7.8 0.00 0.00 0.00 88 1008.1
20260506025503 78 143 3.5 7.8 0.00 0.00 0.00 88 1008.1
20260506025213 78 142 3.5 8.7 0.00 0.00 0.00 88 1008.1
20260506024504 78 149 3.5 10.4 0.00 0.00 0.00 87 1007.8
20260506024004 78 146 3.5 10.4 0.00 0.00 0.00 87 1007.7
20260506023504 79 144 2.6 7.0 0.00 0.00 0.00 87 1007.6
20260506023003 79 146 2.6 8.7 0.00 0.00 0.00 86 1007.5
20260506022713 79 143 2.6 8.7 0.00 0.00 0.00 86 1007.5
20260506022003 80 128 2.6 7.8 0.00 0.00 0.00 85 1007.4
20260506021503 80 126 2.6 7.8 0.00 0.00 0.00 84 1007.3
20260506021217 80 130 2.6 7.0 0.00 0.00 0.00 84 1007.4
20260506020504 80 127 2.6 6.1 0.00 0.00 0.00 83 1007.5
20260506020004 80 124 2.6 7.0 0.00 0.00 0.00 83 1007.5
20260506015716 80 118 2.6 7.0 0.00 0.00 0.00 82 1007.4
20260506015003 81 110 0.9 7.0 0.00 0.00 0.00 82 1007.3
20260506014503 81 120 0.9 5.2 0.00 0.00 0.00 81 1007.2
20260506014003 81 120 0.9 2.6 0.00 0.00 0.00 81 1007.1
20260506013503 81 120 0.9 2.6 0.00 0.00 0.00 81 1007.0
20260506012714 81 120 0.9 2.6 0.00 0.00 0.00 81 1006.9
20260506012004 82 120 0.9 3.5 0.00 0.00 0.00 80 1006.9
20260506011504 82 120 1.7 3.5 0.00 0.00 0.00 80 1006.8
20260506011003 82 122 1.7 3.5 0.00 0.00 0.00 79 1006.7
20260506010503 82 123 0.9 3.5 0.00 0.00 0.00 79 1006.8
20260506010003 82 123 0.9 3.5 0.00 0.00 0.00 79 1006.7
20260506005717 82 123 0.9 3.5 0.00 0.00 0.00 79 1006.7
20260506005214 83 123 0.9 2.6 0.00 0.00 0.00 79 1006.6
20260506004504 83 123 1.7 3.5 0.00 0.00 0.00 78 1006.5
20260506003503 83 124 0.9 3.5 0.00 0.00 0.00 77 1006.5
20260506003003 84 126 1.7 3.5 0.00 0.00 0.00 77 1006.4
20260506002212 84 128 1.7 4.3 0.00 0.00 0.00 76 1006.4
20260506001503 85 131 1.7 4.3 0.00 0.00 0.00 75 1006.4
20260506000504 85 145 1.7 4.3 0.00 0.00 0.00 74 1006.4
20260506000004 85 150 1.7 4.3 0.00 0.00 0.00 74 1006.3
20260505235503 86 150 1.7 4.3 0.00 0.00 0.00 74 1006.2
20260505235003 86 152 1.7 4.3 0.00 0.00 0.00 74 1006.3
20260505234713 86 152 1.7 4.3 0.00 0.00 0.00 73 1006.3
20260505234003 86 187 1.7 4.3 0.00 0.00 0.00 73 1006.1
20260505233503 86 176 1.7 5.2 0.00 0.00 0.00 73 1006.2
20260505233217 86 151 1.7 5.2 0.00 0.00 0.00 71 1006.1
20260505232504 86 118 1.7 3.5 0.00 0.00 0.00 72 1006.2
20260505232003 86 108 1.7 3.5 0.00 0.00 0.00 72 1006.1
20260505231716 86 107 1.7 6.1 0.00 0.00 0.00 72 1006.1
20260505231003 86 135 2.6 6.1 0.00 0.00 0.00 72 1006.0
20260505230503 85 139 1.7 6.1 0.00 0.00 0.00 72 1006.0
20260505230003 86 131 1.7 6.1 0.00 0.00 0.00 71 1006.0
20260505225713 86 121 2.6 7.8 0.00 0.00 0.00 72 1006.0
20260505225003 86 134 2.6 7.8 0.00 0.00 0.00 71 1006.0
20260505224504 86 162 1.7 6.1 0.00 0.00 0.00 72 1006.2
20260505223503 86 180 1.7 5.2 0.00 0.00 0.00 71 1006.1
20260505223003 86 187 1.7 6.1 0.00 0.00 0.00 73 1006.1
20260505222003 86 183 1.7 7.0 0.00 0.00 0.00 72 1006.2
20260505221503 86 181 2.6 7.8 0.00 0.00 0.00 72 1006.2
20260505221003 86 165 2.6 7.8 0.00 0.00 0.00 71 1006.3
20260505220504 85 159 2.6 7.0 0.00 0.00 0.00 72 1006.3
20260505220004 85 159 2.6 5.2 0.00 0.00 0.00 73 1006.3
20260505215713 85 165 2.6 6.1 0.00 0.00 0.00 73 1006.4
20260505215003 85 176 2.6 6.1 0.00 0.00 0.00 72 1006.5
20260505214503 85 181 2.6 8.7 0.00 0.00 0.00 73 1006.6
20260505213503 85 158 2.6 8.7 0.00 0.00 0.00 72 1006.8